SKY027 RJTT-RJFF

Flight info

Callsign SKY027
Flight time N/A
Altitude 36000
Route +TIARA GUSRO Y20 KIRIN
Aircraft ZZZZ

Departure

Time N/A
Airport Tokyo Haneda International Airport (RJTT)

Arrival

Time 2026-05-07 14:58
Airport Fukuoka Airport (RJFF)
Time Latitude Longitude Altitude Speed Heading
2026-05-07 14:08 34.36676 131.77209 27060 ft 389 kts 253°
2026-05-07 14:09 34.35946 131.74058 26670 ft 387 kts 253°
2026-05-07 14:09 34.35224 131.70937 26284 ft 382 kts 253°
2026-05-07 14:09 34.34508 131.67863 25918 ft 377 kts 253°
2026-05-07 14:09 34.33804 131.64821 25550 ft 374 kts 253°
2026-05-07 14:10 34.33107 131.61804 25196 ft 371 kts 253°
2026-05-07 14:10 34.32416 131.58805 24570 ft 370 kts 254°
2026-05-07 14:10 34.31727 131.55815 24041 ft 367 kts 253°
2026-05-07 14:10 34.31047 131.52863 23475 ft 363 kts 253°
2026-05-07 14:11 34.30370 131.49928 22826 ft 359 kts 253°
2026-05-07 14:11 34.29702 131.47035 22176 ft 357 kts 253°
2026-05-07 14:11 34.29043 131.44192 21926 ft 348 kts 253°
2026-05-07 14:11 34.28386 131.41360 21667 ft 350 kts 253°
2026-05-07 14:12 34.27726 131.38515 21423 ft 352 kts 253°
2026-05-07 14:12 34.27071 131.35671 21197 ft 351 kts 253°
2026-05-07 14:12 34.26411 131.32833 20954 ft 350 kts 253°
2026-05-07 14:12 34.25750 131.30001 20698 ft 350 kts 253°
2026-05-07 14:13 34.25092 131.27177 20466 ft 349 kts 253°
2026-05-07 14:13 34.24432 131.24355 20217 ft 348 kts 253°
2026-05-07 14:13 34.23776 131.21544 19928 ft 348 kts 252°
2026-05-07 14:13 34.23115 131.18716 19526 ft 347 kts 252°
2026-05-07 14:14 34.22467 131.15944 19135 ft 340 kts 252°
2026-05-07 14:14 34.21828 131.13211 18745 ft 338 kts 252°
2026-05-07 14:14 34.21188 131.10484 18374 ft 338 kts 252°
2026-05-07 14:14 34.20547 131.07756 18002 ft 334 kts 252°
2026-05-07 14:15 34.19909 131.05042 17974 ft 337 kts 252°
2026-05-07 14:15 34.19270 131.02334 17931 ft 333 kts 252°
2026-05-07 14:15 34.18476 130.99723 17799 ft 333 kts 243°
2026-05-07 14:15 34.17220 130.97361 17427 ft 335 kts 229°
2026-05-07 14:16 34.15516 130.95439 16995 ft 335 kts 223°
2026-05-07 14:16 34.13747 130.93640 16634 ft 331 kts 222°
2026-05-07 14:16 34.11980 130.91878 16257 ft 329 kts 222°
2026-05-07 14:16 34.10212 130.90128 15904 ft 327 kts 222°
2026-05-07 14:17 34.08470 130.88423 15541 ft 326 kts 222°
2026-05-07 14:17 34.06684 130.86688 15209 ft 324 kts 221°
2026-05-07 14:17 34.04945 130.84993 14954 ft 320 kts 222°
2026-05-07 14:17 34.03229 130.83318 14487 ft 323 kts 222°
2026-05-07 14:18 34.01460 130.81589 13997 ft 324 kts 222°
2026-05-07 14:18 33.99705 130.79874 13480 ft 325 kts 222°
2026-05-07 14:18 33.97977 130.78189 13196 ft 318 kts 222°
2026-05-07 14:18 33.96275 130.76537 13092 ft 304 kts 222°
2026-05-07 14:19 33.94681 130.74963 12831 ft 291 kts 226°
2026-05-07 14:19 33.93401 130.73133 12490 ft 282 kts 240°
2026-05-07 14:19 33.92584 130.71020 12012 ft 277 kts 253°
2026-05-07 14:19 33.92278 130.68752 11514 ft 274 kts 268°
2026-05-07 14:20 33.92492 130.66510 11034 ft 274 kts 282°
2026-05-07 14:20 33.93215 130.64390 10556 ft 276 kts 297°
2026-05-07 14:20 33.94273 130.62469 10097 ft 274 kts 301°
2026-05-07 14:20 33.95377 130.60605 9642 ft 272 kts 302°
2026-05-07 14:21 33.96461 130.58798 9395 ft 262 kts 302°
2026-05-07 14:21 33.97528 130.57028 9131 ft 262 kts 302°
2026-05-07 14:21 33.98606 130.55240 8885 ft 265 kts 302°
2026-05-07 14:21 33.99689 130.53441 8630 ft 265 kts 302°
2026-05-07 14:22 34.00773 130.51639 8386 ft 265 kts 302°
2026-05-07 14:22 34.01849 130.49848 8137 ft 264 kts 302°
2026-05-07 14:22 34.02926 130.48054 8022 ft 264 kts 302°
2026-05-07 14:22 34.04008 130.46246 7997 ft 267 kts 302°
2026-05-07 14:23 34.05093 130.44432 7983 ft 264 kts 302°
2026-05-07 14:23 34.06161 130.42650 7965 ft 262 kts 302°
2026-05-07 14:23 34.07233 130.40862 7981 ft 263 kts 302°
2026-05-07 14:23 34.08307 130.39067 7984 ft 265 kts 302°
2026-05-07 14:24 34.09389 130.37257 7981 ft 266 kts 302°
2026-05-07 14:24 34.10469 130.35454 7978 ft 265 kts 302°
2026-05-07 14:24 34.11549 130.33650 7968 ft 265 kts 302°
2026-05-07 14:24 34.12611 130.31875 7977 ft 264 kts 302°
2026-05-07 14:25 34.13687 130.30078 7979 ft 264 kts 302°
2026-05-07 14:25 34.14759 130.28286 7963 ft 263 kts 302°
2026-05-07 14:25 34.15829 130.26496 7977 ft 262 kts 302°
2026-05-07 14:25 34.16897 130.24712 7932 ft 263 kts 302°
2026-05-07 14:26 34.17979 130.22901 7671 ft 267 kts 302°
2026-05-07 14:26 34.19063 130.21083 7426 ft 265 kts 302°
2026-05-07 14:26 34.20137 130.19284 7185 ft 262 kts 302°
2026-05-07 14:26 34.21200 130.17509 6940 ft 260 kts 302°
2026-05-07 14:27 34.22256 130.15742 6696 ft 258 kts 302°
2026-05-07 14:27 34.23305 130.13989 6421 ft 258 kts 302°
2026-05-07 14:27 34.24362 130.12219 6117 ft 259 kts 302°
2026-05-07 14:27 34.25417 130.10452 6025 ft 260 kts 302°
2026-05-07 14:28 34.26478 130.08674 5981 ft 260 kts 302°
2026-05-07 14:28 34.27531 130.06909 5979 ft 258 kts 302°
2026-05-07 14:28 34.28582 130.05150 5965 ft 258 kts 302°
2026-05-07 14:28 34.29630 130.03394 5966 ft 257 kts 302°
2026-05-07 14:29 34.30662 130.01668 5976 ft 257 kts 302°
2026-05-07 14:29 34.31703 129.99917 5970 ft 256 kts 299°
2026-05-07 14:29 34.32453 129.98002 5965 ft 250 kts 281°
2026-05-07 14:29 34.32546 129.95943 5966 ft 244 kts 258°
2026-05-07 14:30 34.31943 129.94053 5975 ft 242 kts 236°
2026-05-07 14:30 34.30749 129.92633 5981 ft 244 kts 213°
2026-05-07 14:30 34.29191 129.91782 5984 ft 247 kts 203°
2026-05-07 14:30 34.27593 129.91093 5975 ft 238 kts 202°
2026-05-07 14:31 34.26060 129.90457 5955 ft 230 kts 202°
2026-05-07 14:31 34.24534 129.89829 5984 ft 241 kts 202°
2026-05-07 14:31 34.22901 129.89146 5986 ft 252 kts 204°
2026-05-07 14:31 34.21271 129.88356 5974 ft 252 kts 204°
2026-05-07 14:32 34.19635 129.87614 5963 ft 250 kts 203°
2026-05-07 14:32 34.18016 129.86896 5969 ft 246 kts 203°
2026-05-07 14:32 34.16412 129.86190 5968 ft 244 kts 203°
2026-05-07 14:32 34.15356 129.85726 5971 ft 245 kts 203°
2026-05-07 14:33 34.13742 129.85017 5977 ft 249 kts 203°
2026-05-07 14:33 34.12084 129.84288 5985 ft 251 kts 203°
2026-05-07 14:33 34.10445 129.83566 5977 ft 250 kts 203°
2026-05-07 14:33 34.08815 129.82849 5974 ft 249 kts 203°
2026-05-07 14:34 34.07211 129.82143 5976 ft 248 kts 203°
2026-05-07 14:34 34.05568 129.81420 5967 ft 248 kts 202°
2026-05-07 14:34 34.03974 129.80716 5970 ft 247 kts 202°
2026-05-07 14:34 34.02359 129.80005 5984 ft 247 kts 203°
2026-05-07 14:35 34.00742 129.79295 5985 ft 248 kts 203°
2026-05-07 14:35 33.99112 129.78616 5979 ft 249 kts 197°
2026-05-07 14:35 33.97367 129.78521 5982 ft 256 kts 174°
2026-05-07 14:35 33.95681 129.79280 5992 ft 264 kts 152°
2026-05-07 14:36 33.94321 129.80796 5981 ft 272 kts 129°
2026-05-07 14:36 33.93329 129.82748 5992 ft 274 kts 123°
2026-05-07 14:36 33.92408 129.84767 5982 ft 275 kts 122°
2026-05-07 14:36 33.91497 129.86797 5980 ft 276 kts 122°
2026-05-07 14:37 33.90585 129.88835 5984 ft 276 kts 122°
2026-05-07 14:37 33.88763 129.92909 5981 ft 276 kts 122°
2026-05-07 14:37 33.87852 129.94948 5983 ft 276 kts 122°
2026-05-07 14:38 33.86941 129.96989 5979 ft 276 kts 122°
2026-05-07 14:38 33.86044 129.98998 5977 ft 276 kts 122°
2026-05-07 14:38 33.85137 130.01031 5980 ft 275 kts 122°
2026-05-07 14:38 33.84235 130.03058 5972 ft 275 kts 122°
2026-05-07 14:39 33.83333 130.05082 5987 ft 274 kts 122°
2026-05-07 14:39 33.82431 130.07096 5983 ft 274 kts 122°
2026-05-07 14:39 33.81528 130.09111 5988 ft 273 kts 122°
2026-05-07 14:39 33.80625 130.11124 5983 ft 273 kts 122°
2026-05-07 14:40 33.79724 130.13133 5981 ft 273 kts 122°
2026-05-07 14:40 33.78820 130.15145 5988 ft 273 kts 122°
2026-05-07 14:40 33.77918 130.17152 5987 ft 274 kts 122°
2026-05-07 14:40 33.77011 130.19167 5985 ft 274 kts 122°
2026-05-07 14:41 33.76105 130.21180 5989 ft 274 kts 122°
2026-05-07 14:41 33.75198 130.23195 5988 ft 274 kts 122°
2026-05-07 14:41 33.74291 130.25209 5987 ft 274 kts 122°
2026-05-07 14:41 33.73386 130.27220 5989 ft 272 kts 122°
2026-05-07 14:42 33.72514 130.29164 5973 ft 256 kts 122°
2026-05-07 14:42 33.71699 130.30997 5985 ft 242 kts 122°
2026-05-07 14:42 33.70906 130.32787 6003 ft 244 kts 123°
2026-05-07 14:42 33.69891 130.34367 5993 ft 235 kts 146°
2026-05-07 14:43 33.68494 130.35249 5999 ft 224 kts 171°
2026-05-07 14:43 33.66978 130.35334 6006 ft 215 kts 189°
2026-05-07 14:43 33.65535 130.35112 6011 ft 203 kts 192°
2026-05-07 14:43 33.64168 130.34879 5995 ft 193 kts 192°
2026-05-07 14:44 33.62864 130.34657 6001 ft 187 kts 192°
2026-05-07 14:44 33.61565 130.34434 6005 ft 190 kts 192°
2026-05-07 14:44 33.60271 130.34113 5993 ft 190 kts 206°
2026-05-07 14:44 33.59252 130.33164 6002 ft 187 kts 235°
2026-05-07 14:45 33.58797 130.31718 6003 ft 190 kts 264°
2026-05-07 14:45 33.59028 130.30154 6019 ft 196 kts 290°
2026-05-07 14:45 33.59634 130.28683 6022 ft 197 kts 292°
2026-05-07 14:45 33.60249 130.27200 6017 ft 198 kts 292°
2026-05-07 14:46 33.60855 130.25740 6012 ft 199 kts 292°
2026-05-07 14:46 33.61479 130.24238 6013 ft 198 kts 292°
2026-05-07 14:46 33.62084 130.22783 6008 ft 197 kts 292°
2026-05-07 14:46 33.62703 130.21296 6008 ft 196 kts 292°
2026-05-07 14:47 33.63313 130.19837 6003 ft 195 kts 292°
2026-05-07 14:47 33.63913 130.18406 6006 ft 194 kts 292°
2026-05-07 14:47 33.64519 130.16960 5981 ft 194 kts 292°
2026-05-07 14:47 33.65125 130.15511 5807 ft 196 kts 292°
2026-05-07 14:48 33.65739 130.14045 5556 ft 197 kts 293°
2026-05-07 14:48 33.66619 130.12769 5283 ft 203 kts 320°
2026-05-07 14:48 33.67957 130.12138 5011 ft 210 kts 349°
2026-05-07 14:48 33.69408 130.12324 4650 ft 219 kts 18°
2026-05-07 14:49 33.70691 130.13316 4280 ft 223 kts 47°
2026-05-07 14:49 33.71475 130.14899 3908 ft 222 kts 76°
2026-05-07 14:49 33.71585 130.16716 3541 ft 217 kts 104°
2026-05-07 14:49 33.71060 130.18368 3258 ft 208 kts 123°
2026-05-07 14:50 33.70414 130.19907 3061 ft 205 kts 122°
2026-05-07 14:50 33.69785 130.21419 3029 ft 198 kts 122°
2026-05-07 14:50 33.69187 130.22876 3000 ft 192 kts 121°
2026-05-07 14:50 33.68589 130.24302 3006 ft 190 kts 126°
2026-05-07 14:51 33.67917 130.25658 2985 ft 189 kts 126°
2026-05-07 14:51 33.67246 130.27000 2921 ft 188 kts 126°
2026-05-07 14:51 33.66543 130.28323 2790 ft 186 kts 131°
2026-05-07 14:51 33.65770 130.29573 2551 ft 186 kts 131°
2026-05-07 14:52 33.64987 130.30798 2322 ft 184 kts 132°
2026-05-07 14:52 33.64212 130.32001 2060 ft 181 kts 132°
2026-05-07 14:52 33.63375 130.33070 2036 ft 174 kts 142°
2026-05-07 14:52 33.62490 130.34112 1922 ft 182 kts 136°
2026-05-07 14:53 33.61534 130.35070 1770 ft 177 kts 148°
2026-05-07 14:53 33.60520 130.35878 1618 ft 174 kts 152°
2026-05-07 14:53 33.59501 130.36631 1557 ft 167 kts 151°
2026-05-07 14:53 33.58620 130.37479 1498 ft 158 kts 146°
2026-05-07 14:54 33.57701 130.38168 1506 ft 156 kts 152°
2026-05-07 14:54 33.56767 130.38842 1513 ft 157 kts 152°
2026-05-07 14:54 33.55831 130.39521 1504 ft 157 kts 152°
2026-05-07 14:54 33.54898 130.40199 1499 ft 156 kts 152°
2026-05-07 14:55 33.53974 130.40873 1484 ft 156 kts 147°
2026-05-07 14:55 33.53258 130.41897 1289 ft 170 kts 118°
2026-05-07 14:55 33.52924 130.43243 1047 ft 164 kts 103°
2026-05-07 14:55 33.52852 130.44560 902 ft 158 kts 83°
2026-05-07 14:56 33.53258 130.45762 775 ft 156 kts 54°
2026-05-07 14:56 33.54072 130.46624 652 ft 159 kts 27°
2026-05-07 14:56 33.55130 130.46966 480 ft 157 kts 359°
2026-05-07 14:56 33.56172 130.46648 399 ft 155 kts 337°
2026-05-07 14:57 33.57110 130.46071 172 ft 149 kts 331°
2026-05-07 14:57 33.57972 130.45484 40 ft 136 kts 330°
2026-05-07 14:57 33.58655 130.45016 33 ft 93 kts 329°
2026-05-07 14:57 33.59161 130.44682 26 ft 68 kts 329°
2026-05-07 14:58 33.59451 130.44508 26 ft 28 kts 344°
2026-05-07 14:58 33.59630 130.44486 28 ft 13 kts 10°
2026-05-07 14:58 33.59706 130.44535 28 ft 4 kts 10°
2026-05-07 14:58 33.59734 130.44521 27 ft 4 kts 329°
2026-05-07 14:59 33.59771 130.44495 27 ft 10 kts 329°
2026-05-07 14:59 33.59860 130.44434 24 ft 19 kts 332°
2026-05-07 14:59 33.59953 130.44373 23 ft 10 kts 331°
2026-05-07 14:59 33.59982 130.44364 21 ft 2 kts 27°
2026-05-07 15:00 33.59994 130.44383 22 ft 5 kts 58°
2026-05-07 15:00 33.60021 130.44448 23 ft 11 kts 63°
2026-05-07 15:00 33.60039 130.44490 23 ft 1 kts 62°
2026-05-07 15:00 33.60041 130.44494 23 ft 1 kts 62°
2026-05-07 15:01 33.60044 130.44499 25 ft 1 kts 60°
2026-05-07 15:01 33.60046 130.44505 25 ft 1 kts 62°
2026-05-07 15:01 33.60047 130.44505 25 ft 0 kts 62°